JAL61 RJFF-ROAH

Flight info

Callsign JAL61
Flight time 1h 28m
Altitude 38000
Route YAMGA VEMRA Y506 HKC Y45 ONC Y525 IHEYA
Aircraft B738/M-SDE2E3FGHIRWXY/LB1

Departure

Time 2026-04-26 09:56
Airport Fukuoka Airport (RJFF)

Arrival

Time 2026-04-26 11:25
Airport Naha International Airport (ROAH)
Time Latitude Longitude Altitude Speed Heading
2026-04-26 09:37 33.58436 130.44591 34 ft 0 kts 241°
2026-04-26 09:47 33.58436 130.44592 34 ft 1 kts 241°
2026-04-26 09:48 33.58447 130.44616 34 ft 4 kts 242°
2026-04-26 09:48 33.58460 130.44645 6 ft 4 kts 244°
2026-04-26 09:48 33.58471 130.44674 44 ft 4 kts 247°
2026-04-26 09:48 33.58481 130.44704 33 ft 4 kts 253°
2026-04-26 09:49 33.58486 130.44735 34 ft 4 kts 275°
2026-04-26 09:49 33.58480 130.44756 36 ft 1 kts 331°
2026-04-26 09:50 33.58482 130.44755 37 ft 2 kts 331°
2026-04-26 09:51 33.58507 130.44739 35 ft 7 kts 331°
2026-04-26 09:51 33.58558 130.44704 36 ft 11 kts 331°
2026-04-26 09:51 33.58628 130.44658 36 ft 11 kts 331°
2026-04-26 09:51 33.58698 130.44611 35 ft 13 kts 330°
2026-04-26 09:52 33.58789 130.44549 30 ft 16 kts 331°
2026-04-26 09:52 33.58953 130.44441 30 ft 13 kts 331°
2026-04-26 09:52 33.59031 130.44390 28 ft 13 kts 331°
2026-04-26 09:53 33.59106 130.44339 29 ft 12 kts 330°
2026-04-26 09:53 33.59180 130.44290 29 ft 12 kts 331°
2026-04-26 09:53 33.59253 130.44242 29 ft 13 kts 332°
2026-04-26 09:53 33.59339 130.44186 28 ft 15 kts 331°
2026-04-26 09:54 33.59429 130.44124 29 ft 11 kts 331°
2026-04-26 09:54 33.59477 130.44093 29 ft 4 kts 332°
2026-04-26 09:54 33.59500 130.44079 28 ft 4 kts 338°
2026-04-26 09:54 33.59532 130.44072 27 ft 6 kts
2026-04-26 09:55 33.59569 130.44103 27 ft 7 kts 57°
2026-04-26 09:55 33.59558 130.44158 28 ft 7 kts 136°
2026-04-26 09:55 33.59540 130.44172 28 ft 0 kts 150°
2026-04-26 09:55 33.59506 130.44196 29 ft 13 kts 149°
2026-04-26 09:56 33.59349 130.44305 28 ft 58 kts 150°
2026-04-26 09:56 33.58791 130.44683 32 ft 123 kts 150°
2026-04-26 09:56 33.57892 130.45303 100 ft 168 kts 150°
2026-04-26 09:56 33.56886 130.46005 749 ft 167 kts 149°
2026-04-26 09:57 33.55901 130.46666 1611 ft 159 kts 149°
2026-04-26 09:57 33.54889 130.47333 2139 ft 177 kts 149°
2026-04-26 09:57 33.53713 130.48100 2425 ft 205 kts 150°
2026-04-26 09:57 33.52380 130.48959 2662 ft 227 kts 150°
2026-04-26 09:58 33.50915 130.49895 2912 ft 250 kts 151°
2026-04-26 09:58 33.49351 130.50884 3562 ft 258 kts 152°
2026-04-26 09:58 33.47753 130.51889 4372 ft 262 kts 152°
2026-04-26 09:58 33.46115 130.52915 5054 ft 271 kts 152°
2026-04-26 09:59 33.44430 130.53967 5848 ft 274 kts 152°
2026-04-26 09:59 33.42735 130.55023 6643 ft 277 kts 152°
2026-04-26 09:59 33.41013 130.56095 7384 ft 280 kts 152°
2026-04-26 09:59 33.39274 130.57176 8137 ft 284 kts 153°
2026-04-26 10:00 33.37511 130.58272 8912 ft 287 kts 153°
2026-04-26 10:00 33.35733 130.59375 9676 ft 290 kts 153°
2026-04-26 10:00 33.33927 130.60496 10340 ft 296 kts 153°
2026-04-26 10:00 33.32035 130.61669 10541 ft 318 kts 153°
2026-04-26 10:01 33.30000 130.62930 10717 ft 341 kts 153°
2026-04-26 10:01 33.27832 130.64272 10929 ft 360 kts 153°
2026-04-26 10:01 33.25580 130.65667 11409 ft 368 kts 153°
2026-04-26 10:01 33.23297 130.67084 12051 ft 372 kts 153°
2026-04-26 10:02 33.20992 130.68515 12748 ft 375 kts 153°
2026-04-26 10:02 33.18667 130.69956 13452 ft 378 kts 153°
2026-04-26 10:02 33.16320 130.71411 14078 ft 382 kts 153°
2026-04-26 10:02 33.13942 130.72883 14685 ft 387 kts 153°
2026-04-26 10:03 33.11527 130.74339 15309 ft 391 kts 158°
2026-04-26 10:03 33.08891 130.75050 15906 ft 392 kts 180°
2026-04-26 10:03 33.06175 130.74854 16608 ft 392 kts 188°
2026-04-26 10:03 33.03456 130.74484 17227 ft 395 kts 189°
2026-04-26 10:04 33.00713 130.74099 17854 ft 399 kts 189°
2026-04-26 10:04 32.97943 130.73730 18442 ft 402 kts 189°
2026-04-26 10:04 32.95157 130.73383 19025 ft 403 kts 188°
2026-04-26 10:04 32.92367 130.73048 19573 ft 403 kts 188°
2026-04-26 10:05 32.89570 130.72713 20069 ft 405 kts 188°
2026-04-26 10:05 32.86765 130.72371 20560 ft 406 kts 187°
2026-04-26 10:05 32.83952 130.72025 21075 ft 407 kts 187°
2026-04-26 10:05 32.81171 130.71683 21515 ft 409 kts 187°
2026-04-26 10:06 32.78329 130.71333 21950 ft 411 kts 187°
2026-04-26 10:06 32.75481 130.70983 22383 ft 413 kts 187°
2026-04-26 10:06 32.72619 130.70632 22816 ft 414 kts 187°
2026-04-26 10:06 32.69746 130.70280 23233 ft 416 kts 187°
2026-04-26 10:07 32.66856 130.69926 23446 ft 423 kts 186°
2026-04-26 10:07 32.63909 130.69565 23635 ft 429 kts 186°
2026-04-26 10:07 32.60941 130.69202 24040 ft 428 kts 186°
2026-04-26 10:07 32.57977 130.68840 24549 ft 427 kts 186°
2026-04-26 10:08 32.55021 130.68480 25015 ft 427 kts 187°
2026-04-26 10:08 32.52062 130.68119 25446 ft 428 kts 187°
2026-04-26 10:08 32.49091 130.67756 25843 ft 430 kts 187°
2026-04-26 10:08 32.46112 130.67393 26222 ft 431 kts 188°
2026-04-26 10:09 32.43131 130.67030 26623 ft 432 kts 188°
2026-04-26 10:09 32.40138 130.66666 26999 ft 432 kts 188°
2026-04-26 10:09 32.37144 130.66302 27394 ft 433 kts 188°
2026-04-26 10:09 32.34146 130.65938 27792 ft 433 kts 188°
2026-04-26 10:10 32.31146 130.65573 28150 ft 434 kts 188°
2026-04-26 10:10 32.28138 130.65208 28499 ft 434 kts 189°
2026-04-26 10:10 32.25135 130.64844 28932 ft 433 kts 189°
2026-04-26 10:10 32.22141 130.64484 29384 ft 431 kts 189°
2026-04-26 10:11 32.19163 130.64129 29925 ft 428 kts 189°
2026-04-26 10:11 32.16225 130.63779 30396 ft 423 kts 189°
2026-04-26 10:11 32.13313 130.63432 30934 ft 417 kts 189°
2026-04-26 10:11 32.10454 130.63092 31587 ft 409 kts 189°
2026-04-26 10:12 32.07668 130.62760 32410 ft 395 kts 190°
2026-04-26 10:12 32.04971 130.62438 33171 ft 385 kts 190°
2026-04-26 10:12 32.02323 130.62120 33668 ft 381 kts 190°
2026-04-26 10:12 31.99690 130.61804 33983 ft 380 kts 190°
2026-04-26 10:13 31.97053 130.61488 34194 ft 381 kts 190°
2026-04-26 10:13 31.94406 130.61177 34377 ft 383 kts 190°
2026-04-26 10:13 31.91754 130.60868 34644 ft 382 kts 190°
2026-04-26 10:13 31.89112 130.60561 34927 ft 381 kts 190°
2026-04-26 10:14 31.86523 130.60260 35277 ft 378 kts 190°
2026-04-26 10:14 31.83906 130.59956 35515 ft 378 kts 191°
2026-04-26 10:14 31.81282 130.59649 35699 ft 379 kts 191°
2026-04-26 10:14 31.78654 130.59342 35865 ft 381 kts 191°
2026-04-26 10:15 31.73343 130.58723 35883 ft 384 kts 191°
2026-04-26 10:15 31.68159 130.57611 35886 ft 372 kts 201°
2026-04-26 10:16 31.63368 130.55426 35912 ft 369 kts 204°
2026-04-26 10:16 31.58581 130.53239 35902 ft 369 kts 203°
2026-04-26 10:17 31.53771 130.51118 35906 ft 369 kts 202°
2026-04-26 10:17 31.48957 130.49009 35901 ft 369 kts 203°
2026-04-26 10:18 31.44143 130.46894 35917 ft 371 kts 203°
2026-04-26 10:18 31.39245 130.44741 35918 ft 381 kts 203°
2026-04-26 10:19 31.34230 130.42538 35896 ft 387 kts 203°
2026-04-26 10:19 31.29190 130.40329 35903 ft 387 kts 203°
2026-04-26 10:20 31.25014 130.38462 35903 ft 386 kts 204°
2026-04-26 10:20 31.19213 130.35715 35900 ft 384 kts 204°
2026-04-26 10:21 31.14303 130.33393 35890 ft 382 kts 204°
2026-04-26 10:21 31.09384 130.31084 35901 ft 380 kts 204°
2026-04-26 10:22 31.04487 130.28795 35905 ft 378 kts 204°
2026-04-26 10:22 31.00396 130.26891 35907 ft 377 kts 204°
2026-04-26 10:23 30.95531 130.24629 35912 ft 377 kts 205°
2026-04-26 10:23 30.90595 130.22332 35917 ft 386 kts 205°
2026-04-26 10:24 30.85564 130.19995 35911 ft 390 kts 205°
2026-04-26 10:24 30.80542 130.17666 35910 ft 391 kts 205°
2026-04-26 10:25 30.75485 130.15324 35906 ft 391 kts 205°
2026-04-26 10:25 30.70445 130.12991 35913 ft 389 kts 205°
2026-04-26 10:26 30.65420 130.10667 35911 ft 388 kts 205°
2026-04-26 10:26 30.60415 130.08355 35902 ft 386 kts 205°
2026-04-26 10:27 30.55431 130.06064 35911 ft 384 kts 204°
2026-04-26 10:27 30.50458 130.03812 35917 ft 383 kts 204°
2026-04-26 10:28 30.45488 130.01564 35930 ft 386 kts 205°
2026-04-26 10:28 30.40434 129.99274 35911 ft 394 kts 205°
2026-04-26 10:29 30.35319 129.96962 35921 ft 395 kts 205°
2026-04-26 10:29 30.30159 129.94728 35925 ft 397 kts 203°
2026-04-26 10:30 30.24957 129.92587 35925 ft 397 kts 203°
2026-04-26 10:30 30.19773 129.90446 35926 ft 395 kts 203°
2026-04-26 10:31 30.14609 129.88302 35938 ft 393 kts 203°
2026-04-26 10:31 30.09470 129.86166 35925 ft 392 kts 203°
2026-04-26 10:32 30.04388 129.84055 35891 ft 390 kts 204°
2026-04-26 10:32 29.99275 129.81923 35919 ft 387 kts 204°
2026-04-26 10:33 29.94314 129.79658 35945 ft 387 kts 206°
2026-04-26 10:33 29.89271 129.77299 35941 ft 395 kts 206°
2026-04-26 10:34 29.84119 129.74909 35965 ft 403 kts 206°
2026-04-26 10:34 29.81515 129.73710 36187 ft 403 kts 205°
2026-04-26 10:34 29.78920 129.72518 36484 ft 400 kts 205°
2026-04-26 10:35 29.76338 129.71334 36760 ft 399 kts 205°
2026-04-26 10:35 29.73767 129.70155 37006 ft 398 kts 205°
2026-04-26 10:35 29.71199 129.68979 37298 ft 396 kts 205°
2026-04-26 10:35 29.68649 129.67811 37612 ft 393 kts 205°
2026-04-26 10:36 29.66112 129.66650 37863 ft 392 kts 205°
2026-04-26 10:36 29.63576 129.65488 37927 ft 394 kts 205°
2026-04-26 10:36 29.58467 129.63149 37936 ft 395 kts 205°
2026-04-26 10:37 29.53382 129.60827 37943 ft 392 kts 205°
2026-04-26 10:37 29.48331 129.58522 37941 ft 389 kts 205°
2026-04-26 10:38 29.43314 129.56234 37942 ft 388 kts 206°
2026-04-26 10:38 29.38305 129.53951 37949 ft 387 kts 206°
2026-04-26 10:39 29.33289 129.51671 37948 ft 388 kts 205°
2026-04-26 10:39 29.28194 129.49557 37951 ft 391 kts 204°
2026-04-26 10:40 29.23048 129.47498 37949 ft 393 kts 204°
2026-04-26 10:40 29.17884 129.45407 37958 ft 394 kts 204°
2026-04-26 10:41 29.12749 129.43169 37955 ft 396 kts 205°
2026-04-26 10:41 29.07608 129.40877 37922 ft 397 kts 205°
2026-04-26 10:42 29.02491 129.38609 37945 ft 398 kts 205°
2026-04-26 10:42 28.97318 129.36331 37962 ft 399 kts 205°
2026-04-26 10:43 28.92131 129.34054 37961 ft 400 kts 205°
2026-04-26 10:43 28.86940 129.31778 37943 ft 400 kts 205°
2026-04-26 10:44 28.81744 129.29503 37961 ft 400 kts 206°
2026-04-26 10:44 28.76554 129.27233 37968 ft 400 kts 206°
2026-04-26 10:45 28.71358 129.24962 37967 ft 400 kts 206°
2026-04-26 10:45 28.66166 129.22696 37968 ft 399 kts 206°
2026-04-26 10:46 28.60980 129.20434 37971 ft 399 kts 206°
2026-04-26 10:46 28.55795 129.18175 37971 ft 399 kts 206°
2026-04-26 10:47 28.50609 129.15918 37975 ft 399 kts 206°
2026-04-26 10:47 28.45428 129.13666 37975 ft 399 kts 206°
2026-04-26 10:48 28.40241 129.11414 37982 ft 399 kts 206°
2026-04-26 10:48 28.35046 129.09160 37981 ft 400 kts 206°
2026-04-26 10:49 28.29843 129.06905 37979 ft 400 kts 206°
2026-04-26 10:49 28.24641 129.04653 37977 ft 401 kts 206°
2026-04-26 10:50 28.20307 129.02779 37978 ft 401 kts 206°
2026-04-26 10:50 28.14207 129.00143 37981 ft 402 kts 206°
2026-04-26 10:51 28.06358 128.96757 37978 ft 402 kts 206°
2026-04-26 10:52 28.01120 128.94500 37982 ft 403 kts 206°
2026-04-26 10:52 27.95876 128.92242 37990 ft 403 kts 206°
2026-04-26 10:53 27.90630 128.89986 37993 ft 404 kts 206°
2026-04-26 10:53 27.85400 128.87753 37992 ft 405 kts 206°
2026-04-26 10:54 27.77490 128.84392 37991 ft 405 kts 206°
2026-04-26 10:54 27.72215 128.82151 37987 ft 406 kts 206°
2026-04-26 10:55 27.66929 128.79906 37983 ft 406 kts 206°
2026-04-26 10:55 27.62497 128.78026 37977 ft 406 kts 206°
2026-04-26 10:56 27.58963 128.76526 37408 ft 411 kts 206°
2026-04-26 10:56 27.56290 128.75395 36837 ft 409 kts 206°
2026-04-26 10:56 27.53632 128.74271 36266 ft 407 kts 206°
2026-04-26 10:56 27.50984 128.73150 35751 ft 405 kts 206°
2026-04-26 10:57 27.48361 128.72043 35317 ft 400 kts 206°
2026-04-26 10:57 27.45876 128.70731 34852 ft 391 kts 217°
2026-04-26 10:57 27.43741 128.68901 34466 ft 383 kts 225°
2026-04-26 10:57 27.41858 128.66802 34007 ft 379 kts 231°
2026-04-26 10:58 27.40336 128.64406 33540 ft 375 kts 241°
2026-04-26 10:58 27.39014 128.61892 33095 ft 372 kts 242°
2026-04-26 10:58 27.37716 128.59386 32658 ft 369 kts 243°
2026-04-26 10:58 27.36427 128.56896 32233 ft 367 kts 243°
2026-04-26 10:59 27.35142 128.54426 31832 ft 365 kts 243°
2026-04-26 10:59 27.33860 128.51972 31422 ft 363 kts 244°
2026-04-26 10:59 27.32582 128.49534 31018 ft 361 kts 244°
2026-04-26 10:59 27.31307 128.47110 30605 ft 359 kts 244°
2026-04-26 11:00 27.30038 128.44701 30214 ft 357 kts 245°
2026-04-26 11:00 27.28777 128.42308 29742 ft 356 kts 245°
2026-04-26 11:00 27.27518 128.39922 29296 ft 353 kts 245°
2026-04-26 11:00 27.26268 128.37556 28877 ft 351 kts 245°
2026-04-26 11:01 27.25028 128.35209 28456 ft 348 kts 245°
2026-04-26 11:01 27.23813 128.32911 28059 ft 345 kts 245°
2026-04-26 11:01 27.22357 128.30676 27265 ft 360 kts 232°
2026-04-26 11:01 27.20385 128.28907 26437 ft 376 kts 219°
2026-04-26 11:02 27.18016 128.27583 25799 ft 384 kts 210°
2026-04-26 11:02 27.15536 128.26467 25348 ft 383 kts 209°
2026-04-26 11:02 27.13076 128.25380 24997 ft 376 kts 209°
2026-04-26 11:02 27.10659 128.24312 24491 ft 372 kts 209°
2026-04-26 11:03 27.08262 128.23243 23879 ft 371 kts 209°
2026-04-26 11:03 27.05865 128.22165 23251 ft 370 kts 209°
2026-04-26 11:03 27.03483 128.21089 22637 ft 368 kts 209°
2026-04-26 11:03 27.01122 128.20021 22063 ft 364 kts 209°
2026-04-26 11:04 26.98782 128.18962 21489 ft 361 kts 209°
2026-04-26 11:04 26.96468 128.17913 21011 ft 356 kts 209°
2026-04-26 11:04 26.94189 128.16882 20570 ft 350 kts 209°
2026-04-26 11:04 26.91940 128.15863 20207 ft 348 kts 208°
2026-04-26 11:05 26.89691 128.14842 19815 ft 350 kts 208°
2026-04-26 11:05 26.87430 128.13815 19429 ft 351 kts 208°
2026-04-26 11:05 26.85161 128.12785 19030 ft 353 kts 208°
2026-04-26 11:05 26.82885 128.11754 18646 ft 354 kts 208°
2026-04-26 11:06 26.80590 128.10715 18233 ft 357 kts 208°
2026-04-26 11:06 26.79062 128.10024 17934 ft 357 kts 207°
2026-04-26 11:06 26.75998 128.08641 17394 ft 353 kts 207°
2026-04-26 11:06 26.73724 128.07616 16996 ft 350 kts 207°
2026-04-26 11:07 26.71476 128.06602 16605 ft 348 kts 207°
2026-04-26 11:07 26.69242 128.05595 16231 ft 345 kts 207°
2026-04-26 11:07 26.67025 128.04596 15846 ft 342 kts 207°
2026-04-26 11:07 26.64825 128.03603 15484 ft 339 kts 207°
2026-04-26 11:08 26.62643 128.02620 15115 ft 337 kts 207°
2026-04-26 11:08 26.60477 128.01644 14749 ft 335 kts 207°
2026-04-26 11:08 26.58326 128.00675 14383 ft 333 kts 207°
2026-04-26 11:08 26.56184 127.99710 14005 ft 331 kts 207°
2026-04-26 11:09 26.54051 127.98750 13606 ft 329 kts 207°
2026-04-26 11:09 26.51934 127.97797 13204 ft 327 kts 207°
2026-04-26 11:09 26.49841 127.96857 12892 ft 322 kts 207°
2026-04-26 11:09 26.47779 127.95930 12561 ft 318 kts 207°
2026-04-26 11:10 26.46422 127.95320 12346 ft 316 kts 206°
2026-04-26 11:10 26.44396 127.94409 12010 ft 312 kts 206°
2026-04-26 11:10 26.42389 127.93508 11698 ft 309 kts 206°
2026-04-26 11:10 26.40420 127.92625 11374 ft 302 kts 206°
2026-04-26 11:11 26.38500 127.91750 11053 ft 295 kts 207°
2026-04-26 11:11 26.36651 127.90824 10738 ft 288 kts 208°
2026-04-26 11:11 26.34847 127.89893 10433 ft 283 kts 209°
2026-04-26 11:11 26.33076 127.88975 10125 ft 279 kts 208°
2026-04-26 11:12 26.31330 127.88072 9808 ft 275 kts 208°
2026-04-26 11:12 26.29608 127.87185 9471 ft 271 kts 208°
2026-04-26 11:12 26.27907 127.86312 9148 ft 267 kts 208°
2026-04-26 11:12 26.26232 127.85454 8826 ft 264 kts 208°
2026-04-26 11:13 26.24573 127.84605 8496 ft 261 kts 208°
2026-04-26 11:13 26.22949 127.83776 8252 ft 252 kts 208°
2026-04-26 11:13 26.21379 127.82975 8003 ft 246 kts 208°
2026-04-26 11:13 26.19833 127.82186 7753 ft 244 kts 209°
2026-04-26 11:14 26.18293 127.81399 7511 ft 243 kts 209°
2026-04-26 11:14 26.16756 127.80615 7273 ft 243 kts 209°
2026-04-26 11:14 26.15218 127.79830 7028 ft 243 kts 209°
2026-04-26 11:14 26.13685 127.79048 6787 ft 242 kts 208°
2026-04-26 11:15 26.12156 127.78269 6532 ft 241 kts 208°
2026-04-26 11:15 26.10653 127.77504 6280 ft 240 kts 208°
2026-04-26 11:15 26.09132 127.76730 6034 ft 240 kts 208°
2026-04-26 11:15 26.07625 127.75964 5791 ft 235 kts 208°
2026-04-26 11:16 26.06156 127.75218 5531 ft 229 kts 208°
2026-04-26 11:16 26.04721 127.74489 5280 ft 227 kts 208°
2026-04-26 11:16 26.03216 127.74085 5182 ft 220 kts 181°
2026-04-26 11:16 26.01683 127.74238 5076 ft 223 kts 181°
2026-04-26 11:17 26.00130 127.74231 4949 ft 223 kts 185°
2026-04-26 11:17 25.98611 127.74208 4808 ft 213 kts 184°
2026-04-26 11:17 25.97170 127.74199 4679 ft 201 kts 184°
2026-04-26 11:17 25.95804 127.74066 4567 ft 194 kts 206°
2026-04-26 11:18 25.94800 127.73169 4521 ft 186 kts 245°
2026-04-26 11:18 25.94515 127.71803 4428 ft 186 kts 272°
2026-04-26 11:18 25.94525 127.70348 4265 ft 189 kts 274°
2026-04-26 11:18 25.94540 127.68899 4110 ft 185 kts 274°
2026-04-26 11:19 25.94556 127.67480 4081 ft 182 kts 274°
2026-04-26 11:19 25.94692 127.66101 4057 ft 179 kts 294°
2026-04-26 11:19 25.95402 127.65001 4053 ft 179 kts 329°
2026-04-26 11:19 25.96602 127.64665 4079 ft 181 kts 348°
2026-04-26 11:20 25.97868 127.64428 3871 ft 186 kts 349°
2026-04-26 11:20 25.98715 127.64316 3715 ft 184 kts 352°
2026-04-26 11:20 26.00400 127.64186 3389 ft 178 kts 354°
2026-04-26 11:20 26.01621 127.64121 3154 ft 174 kts 355°
2026-04-26 11:21 26.02841 127.64061 2923 ft 176 kts 356°
2026-04-26 11:21 26.04061 127.64004 2699 ft 175 kts 356°
2026-04-26 11:21 26.05274 127.63947 2462 ft 173 kts 356°
2026-04-26 11:21 26.06459 127.63892 2231 ft 168 kts 356°
2026-04-26 11:22 26.07606 127.63839 2012 ft 162 kts 355°
2026-04-26 11:22 26.08708 127.63787 1799 ft 153 kts 355°
2026-04-26 11:22 26.09734 127.63739 1606 ft 147 kts 355°
2026-04-26 11:22 26.10761 127.63690 1407 ft 146 kts 355°
2026-04-26 11:23 26.11732 127.63645 1225 ft 132 kts 355°
2026-04-26 11:23 26.12634 127.63602 1052 ft 129 kts 355°
2026-04-26 11:23 26.13511 127.63561 889 ft 125 kts 356°
2026-04-26 11:23 26.14394 127.63525 762 ft 130 kts 355°
2026-04-26 11:24 26.15317 127.63516 648 ft 135 kts
2026-04-26 11:24 26.16179 127.63925 586 ft 140 kts 28°
2026-04-26 11:24 26.17018 127.64465 426 ft 139 kts 22°
2026-04-26 11:24 26.17944 127.64659 180 ft 135 kts 356°
2026-04-26 11:25 26.18845 127.64626 33 ft 123 kts 351°
2026-04-26 11:25 26.19607 127.64583 15 ft 91 kts 358°
2026-04-26 11:25 26.20036 127.64565 15 ft 34 kts 360°
2026-04-26 11:25 26.20248 127.64600 17 ft 28 kts 19°
2026-04-26 11:26 26.20388 127.64675 17 ft 16 kts 27°
2026-04-26 11:26 26.20484 127.64728 16 ft 11 kts 25°
2026-04-26 11:26 26.20528 127.64746 18 ft 7 kts
2026-04-26 11:26 26.20597 127.64755 16 ft 11 kts 26°
2026-04-26 11:27 26.20633 127.64828 18 ft 11 kts 86°
2026-04-26 11:27 26.20636 127.64912 20 ft 9 kts 88°
2026-04-26 11:27 26.20627 127.64958 20 ft 6 kts 133°
2026-04-26 11:27 26.20590 127.64986 20 ft 6 kts 148°
2026-04-26 11:28 26.20570 127.65000 20 ft 2 kts 148°
2026-04-26 11:28 26.20565 127.65003 20 ft 0 kts 148°